Weather Roundup
Issued by NWS

Home | Current Version | Previous Version | Graphics & Text | Print | Product List | Glossary Off
Versions: 1 2 3 4 5 6 7 8 9 10 11 12 13 14 15 16 17 18 19 20 21 22 23 24 25 26 27 28 29 30 31 32 33 34 35 36 37 38 39 40 41 42 43 44 45 46 47 48 49 50

000
NZUS93 KARX 190610
HRRWXR

CURRENT HOURLY OBSERVATIONS ACROSS
MUCH OF THE UPPER MISSISSIPPI VALLEY
NATIONAL WEATHER SERVICE LA CROSSE WI
100 AM CDT SUN OCT 19 2014


...SOUTHEAST MINNESOTA...


CITY           SKY/WX    TMP DP  RH WIND       PRES   REMARKS
ROCHESTER      CLEAR     35  31  85 S10       30.12F WCI  27
ROCHESTER/MAYO FAIR      41  31  67 S8        30.11F
WINONA         CLEAR     36  34  93 CALM      30.13F
AUSTIN         CLEAR     37  32  81 CALM      30.12S
ALBERT LEA     CLEAR     39  37  93 S3        30.12F
DODGE CENTER   PTCLDY    37  34  87 SW3       30.11F
PRESTON        CLEAR     37  32  83 S6        30.12F WCI  32
OWATONNA       CLEAR     39  34  81 S7        30.10F WCI  34
FARIBAULT      CLEAR     37  34  87 SE5       30.10F WCI  34
$$

...ELSEWHERE IN MINNESOTA...


CITY           SKY/WX    TMP DP  RH WIND       PRES   REMARKS
MINNEAPOLIS    CLEAR     41  35  79 SE6       30.08F
INTNL FALLS    CLOUDY    34  29  82 CALM      29.95F
DULUTH         FAIR      38  30  73 SW3       30.04F
RED WING       CLEAR     36  34  93 CALM      30.11S
REDWOOD FALLS  PTCLDY    39  35  86 S7        30.05F WCI  34
MANKATO        PTCLDY    41  34  75 S9        30.08F
WORTHINGTON    PTCLDY    45  37  76 S10G21    30.08F
FAIRMONT       PTCLDY    37  32  81 S8        30.09F WCI  31
$$

...SOUTHWEST WISCONSIN...


CITY           SKY/WX    TMP DP  RH WIND       PRES   REMARKS
LA CROSSE      CLEAR     37  34  89 SE8       30.14F WCI  31
PRAIRIE DU CHI CLEAR     35  33  92 CALM      30.16F
BOSCOBEL       PTCLDY    32  29  88 CALM      30.18S FOG
LONE ROCK      CLEAR     35  30  82 CALM      30.18S
PLATTEVILLE    PTCLDY    37  34  89 CALM      30.18S
FORT MC COY    CLEAR     28  27  99 CALM      30.15F
CAMP DOUGLAS   CLEAR     28  28 100 E2        30.15S
VIROQUA        FAIR      39  32  76 S6        30.14F
WIS DELLS      CLEAR     32  30  94 CALM      30.15F
$$

...ELSEWHERE IN WISCONSIN...


CITY           SKY/WX    TMP DP  RH WIND       PRES   REMARKS
MILWAUKEE      CLEAR     39  34  82 W3        30.19R
MADISON        CLEAR     33  31  92 CALM      30.18S
GREEN BAY      CLEAR     33  31  92 CALM      30.17R
EAU CLAIRE     CLEAR     35  31  85 CALM      30.10F
BLACK RVR FLS  FAIR      26  26 100 CALM      30.14F
MEDFORD        PTCLDY    31  29  94 CALM      30.11F
WAUSAU         MOCLDY    31  29  92 E6        30.12F WCI  25
WIS RAPIDS     PTCLDY    30  28  92 CALM      30.16S
MARSHFIELD     CLEAR     34  31  88 S3        30.13F
RICE LAKE      CLEAR     32  30  94 CALM      30.12R
$$

...NORTHEAST IOWA...


CITY           SKY/WX    TMP DP  RH WIND       PRES   REMARKS
DECORAH        CLEAR     36  34  93 S3        30.14S
MASON CITY     CLEAR     36  34  92 S6        30.14F WCI  31
CHARLES CITY   CLEAR     41  36  81 SE9       30.13F
OELWEIN        CLEAR     36  34  93 S6        30.16S WCI  31
$$

...ELSEWHERE IN IOWA...


CITY           SKY/WX    TMP DP  RH WIND       PRES   REMARKS
DES MOINES     CLEAR     42  38  85 S6        30.16F
IOWA CITY      CLEAR     35  35 100 CALM      30.20F FOG
FORT DODGE     PTCLDY    39  36  87 CALM      30.15S
$$

...NORTHERN ILLINOIS...


CITY           SKY/WX    TMP DP  RH WIND       PRES   REMARKS
CHICAGO-OHARE  PTCLDY    36  33  89 W6        30.20S WCI  31
CHICAGO-MIDWAY PTCLDY    41  37  86 CALM      30.20S
MOLINE         CLEAR     34  32  92 CALM      30.20F
ROCKFORD       CLEAR     35  32  88 S3        30.21F
PEORIA         CLEAR     44  40  85 CALM      30.22S
$$

NOTE: "FAIR" INDICATES FEW OR NO CLOUDS BELOW 12,000 FEET WITH NO
SIGNIFICANT WEATHER AND/OR OBSTRUCTIONS TO VISIBILITY. WIND
SPEEDS ARE IN MILES-PER-HOUR.



USA.gov is the U.S. government's official web portal to all federal, state and local government web resources and services.